Location: La Silve
(44.2414°N, 5.8889°E)
Time: 06:09:44
(UTC+00:00)

BREEZE-M DEB (TANK) - Pass Details

Date: 01 December 2020
Orbit: 322 x 13923 km, 49.6° (Epoch: 27 January)

Event Time Altitude Azimuth Distance (km) Brightness Sun altitude
Rises 17:57:22 0° 237° (WSW) 6,979 9.6 -20.6°
Reaches altitude 10° 18:03:47 10° 237° (WSW) 4,296 8.3 -21.7°
Maximum altitude 18:12:16 77° 154° (SSE) 719 3.2 -23.2°
Enters shadow 18:12:36 71° 104° (ESE) 704 3.0 -23.3°
